Regional Weather Roundup
Issued by NWS New Orleans/Baton Rouge, LA

Home | Current Version | Previous Version | Text Only | Print | Product List | Glossary Off
Versions: 1 2 3 4 5 6 7 8 9 10 11 12 13 14 15 16 17 18 19 20 21 22 23 24 25 26 27 28 29 30 31 32 33 34 35 36 37 38 39 40 41 42 43 44 45 46 47 48 49 50

109
ASUS44 KLIX 311101
RWRLIX
NEW ORLEANS REGIONAL WEATHER ROUNDUP
NATIONAL WEATHER SERVICE NEW ORLEANS LA
600 AM CDT THU JUL 31 2014

NOTE: "FAIR" INDICATES FEW OR NO CLOUDS BELOW 12,000 FEET WITH NO
      SIGNIFICANT WEATHER AND/OR OBSTRUCTIONS TO VISIBILITY.
      SKY/WX - SKY CONDITION AND SIGNIFICANT WEATHER.
      TMP - AIR TEMPERATURE.     DP    - DEWPOINT TEMPERATURE.
      RH  - RELATIVE HUMIDITY.   PRES  - PRESSURE.
      HI  - HEAT INDEX.          WCI   - WIND CHILL INDEX.

*  THESE STATIONS ARE NOT NWS OR FAA STATIONS AND ARE NOT UNDER
   NWS QUALITY CONTROL.

LAZ038-040-048-061>063-065>067-069-311200-
SOUTHEAST LOUISIANA

CITY           SKY/WX    TMP DP  RH WIND       PRES   REMARKS
N.O. AUDUBON   NOT AVBL
N.O. INTL ARPT PTCLDY    71  65  81 CALM      30.00R
N.O. LAKEFRONT CLEAR     78  68  71 E8        30.00S
N.O. DOWNTOWN*   N/A     79  61  53 CALM      30.01R
SLIDELL        CLEAR     65  62  90 CALM      30.01R
BATON ROUGE    MOCLDY    69  64  84 E6        30.00S
BOOTHVILLE     CLEAR     76  64  66 CALM      30.01R
BELLE CHASSE   PTCLDY    68  64  87 CALM      30.00R
BOGALUSA*        N/A     68  64  85 CALM      30.03R
GALLIANO*      NOT AVBL
NEW ROADS*       N/A     70  64  81 CALM      30.02R
GONZALES*        N/A     66  66 100 CALM      30.00R
HAMMOND*       PTCLDY    70  63  78 CALM      30.03R
HOUMA*         CLOUDY    73  67  82 CALM      29.99S
PORT FOURCHON* PTSUNNY   81  64  57 SE3       30.01R

$$

MSZ070-080>082-311200-
SOUTHERN MISSISSIPPI

CITY           SKY/WX    TMP DP  RH WIND       PRES   REMARKS
MCCOMB         MOCLDY    71  60  68 NE3       30.04R
GULFPORT       PTCLDY    73  61  65 CALM      30.01R
BILOXI         CLOUDY    70  61  73 NE6       30.02R
PASCAGOULA     CLEAR     63  61  93 CALM      30.01R

$$

COASTAL OBSERVATIONS
LAKE AND NEARSHORE STATIONS

STATION/POSITION TIME  TEMP    WIND        PRES    WAVE
                       AIR SEA DIR/SP/G            HT/PER
                 (UTC) (F)     (DEG/KT/KT) (MB)    (FT/S)
PASCAGOULA       1000   70      20/  5/  6 1015.5
WAVELAND YACHT   1000   73      40/  6/  8 1015.4
GRAND ISLE       1000   80 86  140/  2/  3 1016.0
SOUTHWEST PASS   1000   79 85   90/  5/  5 1015.7
NEW CANAL        1000   76 83  140/  3/  4 1016.0
SHELL BEACH      1000   78 81  190/  4/  5 1015.7

OFFSHORE STATIONS

STATION/POSITION TIME  TEMP    WIND        PRES    WAVE
                       AIR SEA DIR/SP/G            HT/PER
                 (UTC) (F)     (DEG/KT/KT) (MB)    (FT/S)
64 S DAUPHIN ISL 1013   81 85   10/  4/  4 1015.3

$$




USA.gov is the U.S. government's official web portal to all federal, state and local government web resources and services.